User: anonymous   Login
Location: G�rlitz
(51.1670°N, 15.0000°E)
Time: 16:07:56
(UTC+02:00)
Language:

RS-44 - Orbit

View from above orbital plane
View from above orbital plane
View from above satellite
View from above satellite

Ground track
Ground track

The orbit is defined by the following mean orbital elements,

1 44909U          26101.16047447 +.00000000 +00000-0 +23984-4 0 00002
2 44909  82.5261  24.2410 0216562 301.3011  56.7045 12.79747933    05
Epoch (UTC): 11 April 2026 03:51:04
Eccentricity: 0.0216562
inclination: 82.5261°
perigee height: 1175 km
apogee height: 1510 km
right ascension of ascending node: 24.2410°
argument of perigee: 301.3011°
revolutions per day: 12.79747933
mean anomaly at epoch: 56.7045°

The dashed part of the orbit path shows where the satellite is in the earth's shadow,  

DLR